Norfolk, NE

6:56 AM CDT on August 30, 2016 (GMT -0500)
Stefan Memorial

Weather History for KOFK - November, 2010

Change the Weather History Date:

Friday, November 19, 2010

  Actual Average Record
Temperature  
Mean Temperature 35 °F 34 °F  
Max Temperature 42 °F 45 °F 73 °F (1989)
Min Temperature 28 °F 24 °F -4 °F (1914)
Degree Days  
Heating Degree Days 30 31  
Month to date heating degree days 424 487  
Since 1 July heating degree days 853 1072  
Cooling Degree Days 0 0  
Month to date cooling degree days 0 0  
Year to date cooling degree days 985 915  
Moisture  
Dew Point 25 °F    
Average Humidity 69    
Maximum Humidity 89    
Minimum Humidity 48    
Precipitation  
Precipitation 0.00 in 0.04 in 1.41 in (1975)
Month to date precipitation 0.19 0.91  
Year to date precipitation 28.72 26.20  
Snow  
Snow 0.00 in 0.20 in - ()
Month to date snowfall 0.0 2.1  
Since 1 July snowfall T 2.9  
Snow Depth 0.00 in    
Sea Level Pressure  
Sea Level Pressure 30.04 in    
Wind  
Wind Speed 12 mph (NNW)    
Max Wind Speed 22 mph    
Max Gust Speed 31 mph    
Visibility 10 miles    
Events      
T = Trace of Precipitation, MM = Missing Value Source: NWS Daily Summary

Daily Weather History Graph

Daily Weather History Graph

Search for Another Location

Airport or City:

Trip Planner

Search our weather history database for the weather conditions in past years. The results will help you decide how hot, cold, wet, or windy it might be!

Date:

Astronomy

Nov. 19, 2010 Rise Set
Actual Time 7:24 AM CST 5:05 PM CST
Civil Twilight 6:54 AM CST 5:35 PM CST
Nautical Twilight 6:20 AM CST 6:09 PM CST
Astronomical Twilight 5:46 AM CST 6:42 PM CST
Moon 3:37 PM CST (11/19) 5:22 AM CST (11/19)
Length of Visible Light 10h 41m
Length of Day
9h 40m
Waxing Gibbous, 96% of the Moon is Illuminated
Nov 19
Waxing Gibbous
Nov 21
Full
Nov 28
Last Quarter
Dec 5
New
Dec 13
First Quarter

Hourly Weather History & Observations

Time (CST) Temp. Windchill Dew Point Humidity Pressure Visibility Wind Dir Wind Speed Gust Speed Precip Events Conditions
1:56 AM 37.0 °F 29.8 °F 32.0 °F 82% 29.85 in 10.0 mi SSW 10.4 mph 20.7 mph N/A   Clear
2:56 AM 36.0 °F 28.0 °F 32.0 °F 86% 29.83 in 10.0 mi SSW 11.5 mph 20.7 mph N/A   Clear
3:56 AM 36.0 °F 27.5 °F 30.9 °F 82% 29.86 in 10.0 mi SW 12.7 mph - N/A   Clear
4:56 AM 35.1 °F 27.9 °F 30.9 °F 85% 29.87 in 10.0 mi SW 9.2 mph - N/A   Clear
5:56 AM 36.0 °F 28.5 °F 30.9 °F 82% 29.90 in 10.0 mi WSW 10.4 mph 17.3 mph N/A   Clear
6:56 AM 35.1 °F 27.9 °F 30.9 °F 85% 29.94 in 10.0 mi NW 9.2 mph - N/A   Clear
7:56 AM 37.0 °F 27.7 °F 30.0 °F 76% 29.97 in 10.0 mi North 16.1 mph 23.0 mph N/A   Partly Cloudy
8:56 AM 37.0 °F 26.7 °F 30.0 °F 76% 30.01 in 10.0 mi North 19.6 mph 24.2 mph N/A   Partly Cloudy
9:15 AM 37.4 °F 29.3 °F 30.2 °F 75% 29.99 in 10.0 mi North 12.7 mph 24.2 mph N/A   Mostly Cloudy
9:56 AM 39.9 °F 31.8 °F 30.0 °F 68% 30.04 in 10.0 mi North 15.0 mph - N/A   Mostly Cloudy
10:25 AM 39.2 °F 30.8 °F 30.2 °F 70% 30.01 in 10.0 mi NNW 15.0 mph - N/A   Scattered Clouds
10:56 AM 41.0 °F 33.1 °F 28.9 °F 62% 30.06 in 10.0 mi North 15.0 mph - N/A   Mostly Cloudy
11:10 AM 41.0 °F 32.8 °F 28.4 °F 61% 30.03 in 10.0 mi NNW 16.1 mph - N/A   Scattered Clouds
11:56 AM 41.0 °F 32.5 °F 28.0 °F 60% 30.05 in 10.0 mi NNW 17.3 mph - N/A   Clear
12:56 PM 39.9 °F 31.8 °F 25.0 °F 55% 30.06 in 10.0 mi NNW 15.0 mph - N/A   Clear
1:56 PM 41.0 °F 32.8 °F 24.1 °F 51% 30.06 in 10.0 mi NNW 16.1 mph - N/A   Clear
2:56 PM 39.9 °F 32.1 °F 21.9 °F 49% 30.07 in 10.0 mi North 13.8 mph 23.0 mph N/A   Clear
3:56 PM 39.0 °F 31.0 °F 21.0 °F 49% 30.10 in 10.0 mi North 13.8 mph - N/A   Clear
4:56 PM 36.0 °F 26.3 °F 19.9 °F 52% 30.11 in 10.0 mi North 16.1 mph - N/A   Clear
5:56 PM 33.1 °F 23.0 °F 19.0 °F 56% 30.14 in 10.0 mi North 15.0 mph - N/A   Clear
6:56 PM 30.9 °F 22.2 °F 18.0 °F 59% 30.16 in 10.0 mi NNE 10.4 mph - N/A   Clear
7:56 PM 30.0 °F 21.7 °F 19.0 °F 64% 30.18 in 10.0 mi NNE 9.2 mph - N/A   Clear
8:56 PM 30.0 °F 22.4 °F 18.0 °F 61% 30.19 in 10.0 mi North 8.1 mph - N/A   Clear
9:56 PM 28.9 °F 21.9 °F 17.1 °F 61% 30.19 in 10.0 mi NNE 6.9 mph - N/A   Clear
10:56 PM 28.9 °F 21.9 °F 17.1 °F 61% 30.21 in 10.0 mi NNE 6.9 mph - N/A   Clear
11:56 PM 28.0 °F 18.6 °F 17.1 °F 63% 30.19 in 10.0 mi NE 10.4 mph - N/A   Clear